| time (UTC) | temp C | wind direction | speed KPH | gust KPH | rain 1hr cm | rain 24hr cm | rain mn cm | humidity % | barometer mb |
| 20260507164555 | 16 | 213 | 19.3 | 38.6 | 0.00 | 0.00 | 0.00 | 54 | 1015.0 |
| 20260507163055 | 15 | 206 | 19.3 | 32.2 | 0.00 | 0.00 | 0.00 | 56 | 1015.0 |
| 20260507161552 | 15 | 199 | 22.5 | 41.8 | 0.00 | 0.00 | 0.00 | 55 | 1015.2 |
| 20260507160051 | 15 | 199 | 20.9 | 38.6 | 0.00 | 0.00 | 0.00 | 58 | 1015.4 |
| 20260507154541 | 14 | 236 | 20.9 | 40.2 | 0.00 | 0.00 | 0.00 | 59 | 1015.6 |
| 20260507153037 | 14 | 210 | 17.7 | 33.8 | 0.00 | 0.00 | 0.00 | 60 | 1015.8 |
| 20260507151533 | 13 | 207 | 9.7 | 27.4 | 0.00 | 0.00 | 0.00 | 62 | 1016.0 |
| 20260507150036 | 13 | 211 | 16.1 | 35.4 | 0.00 | 0.00 | 0.00 | 62 | 1016.1 |
| 20260507144523 | 12 | 240 | 14.5 | 27.4 | 0.00 | 0.00 | 0.00 | 65 | 1016.4 |
| 20260507143019 | 12 | 251 | 14.5 | 25.7 | 0.00 | 0.00 | 0.00 | 67 | 1016.7 |
| 20260507141516 | 11 | 237 | 9.7 | 29.0 | 0.00 | 0.00 | 0.00 | 69 | 1016.7 |
| 20260507140012 | 11 | 205 | 12.9 | 32.2 | 0.00 | 0.00 | 0.00 | 69 | 1016.8 |
| 20260507134507 | 10 | 210 | 9.7 | 17.7 | 0.00 | 0.00 | 0.00 | 75 | 1016.6 |
| 20260507133002 | 9 | 208 | 6.4 | 14.5 | 0.00 | 0.00 | 0.00 | 79 | 1016.9 |
| 20260507131602 | 8 | 231 | 8.0 | 16.1 | 0.00 | 0.00 | 0.00 | 81 | 1016.9 |
| 20260507130107 | 7 | 205 | 6.4 | 12.9 | 0.00 | 0.00 | 0.00 | 82 | 1017.0 |
| 20260507124601 | 7 | 200 | 8.0 | 16.1 | 0.00 | 0.00 | 0.00 | 84 | 1016.8 |
| 20260507123054 | 6 | 201 | 4.8 | 9.7 | 0.00 | 0.00 | 0.00 | 86 | 1016.8 |
| 20260507121551 | 6 | 204 | 6.4 | 9.7 | 0.00 | 0.00 | 0.00 | 87 | 1016.9 |
| 20260507120049 | 5 | 200 | 4.8 | 9.7 | 0.00 | 0.00 | 0.00 | 87 | 1016.9 |
| 20260507114559 | 5 | 193 | 4.8 | 8.0 | 0.00 | 0.00 | 0.00 | 87 | 1016.9 |
| 20260507113043 | 5 | 203 | 4.8 | 6.4 | 0.00 | 0.00 | 0.00 | 85 | 1016.9 |
| 20260507111542 | 6 | 201 | 3.2 | 8.0 | 0.00 | 0.00 | 0.00 | 84 | 1016.9 |
| 20260507110044 | 6 | 215 | 4.8 | 8.0 | 0.00 | 0.00 | 0.00 | 85 | 1017.0 |
| 20260507104539 | 5 | 224 | 3.2 | 6.4 | 0.00 | 0.00 | 0.00 | 86 | 1017.0 |
| 20260507103043 | 5 | 228 | 0.0 | 0.0 | 0.00 | 0.00 | 0.00 | 85 | 1017.1 |
| 20260507101537 | 5 | 207 | 0.0 | 0.0 | 0.00 | 0.00 | 0.00 | 84 | 1017.0 |
| 20260507100036 | 5 | 207 | 0.0 | 0.0 | 0.00 | 0.00 | 0.00 | 83 | 1017.0 |
| 20260507094535 | 6 | 207 | 0.0 | 0.0 | 0.00 | 0.00 | 0.00 | 82 | 1017.1 |
| 20260507093028 | 6 | 207 | 0.0 | 0.0 | 0.00 | 0.00 | 0.00 | 81 | 1017.2 |
| 20260507091531 | 6 | 207 | 1.6 | 4.8 | 0.00 | 0.00 | 0.00 | 80 | 1017.3 |
| 20260507090024 | 6 | 230 | 1.6 | 4.8 | 0.00 | 0.00 | 0.00 | 79 | 1017.4 |
| 20260507084522 | 6 | 205 | 4.8 | 6.4 | 0.00 | 0.00 | 0.00 | 78 | 1017.5 |
| 20260507083019 | 7 | 233 | 1.6 | 6.4 | 0.00 | 0.00 | 0.00 | 77 | 1017.6 |
| 20260507081516 | 7 | 217 | 3.2 | 8.0 | 0.00 | 0.00 | 0.00 | 76 | 1017.7 |
| 20260507080014 | 7 | 239 | 4.8 | 8.0 | 0.00 | 0.00 | 0.00 | 75 | 1017.7 |
| 20260507074511 | 7 | 230 | 3.2 | 8.0 | 0.00 | 0.00 | 0.00 | 75 | 1017.8 |
| 20260507073008 | 7 | 239 | 1.6 | 4.8 | 0.00 | 0.00 | 0.00 | 74 | 1017.8 |
| 20260507071506 | 7 | 240 | 0.0 | 4.8 | 0.00 | 0.00 | 0.00 | 73 | 1018.0 |
| 20260507070002 | 8 | 240 | 0.0 | 4.8 | 0.00 | 0.00 | 0.00 | 71 | 1018.1 |
| 20260507064600 | 8 | 241 | 3.2 | 4.8 | 0.00 | 0.00 | 0.00 | 70 | 1018.1 |
| 20260507063100 | 8 | 237 | 3.2 | 6.4 | 0.00 | 0.00 | 0.00 | 69 | 1018.3 |
| 20260507061555 | 9 | 229 | 3.2 | 4.8 | 0.00 | 0.00 | 0.00 | 68 | 1018.4 |
| 20260507060055 | 9 | 236 | 3.2 | 8.0 | 0.00 | 0.00 | 0.00 | 68 | 1018.6 |
| 20260507054551 | 9 | 231 | 1.6 | 4.8 | 0.00 | 0.00 | 0.00 | 68 | 1018.8 |
| 20260507053053 | 9 | 228 | 0.0 | 4.8 | 0.00 | 0.00 | 0.00 | 67 | 1018.8 |
| 20260507051548 | 10 | 232 | 1.6 | 4.8 | 0.00 | 0.00 | 0.00 | 65 | 1018.6 |
| 20260507050046 | 10 | 228 | 1.6 | 6.4 | 0.00 | 0.00 | 0.00 | 65 | 1018.5 |
| 20260507044558 | 10 | 233 | 3.2 | 8.0 | 0.00 | 0.00 | 0.00 | 64 | 1018.6 |
| 20260507043048 | 10 | 242 | 1.6 | 4.8 | 0.00 | 0.00 | 0.00 | 62 | 1018.6 |
| 20260507041546 | 10 | 231 | 0.0 | 4.8 | 0.00 | 0.00 | 0.00 | 62 | 1018.6 |
| 20260507040046 | 10 | 233 | 1.6 | 4.8 | 0.00 | 0.00 | 0.00 | 60 | 1018.6 |
| 20260507034545 | 10 | 233 | 1.6 | 6.4 | 0.00 | 0.00 | 0.00 | 59 | 1018.8 |
| 20260507033055 | 10 | 234 | 0.0 | 4.8 | 0.00 | 0.00 | 0.00 | 57 | 1018.7 |
| 20260507031555 | 9 | 236 | 0.0 | 4.8 | 0.00 | 0.00 | 0.00 | 62 | 1018.8 |
| 20260507030101 | 8 | 212 | 0.0 | 3.2 | 0.00 | 0.00 | 0.00 | 60 | 1018.6 |
| 20260507024601 | 9 | 303 | 0.0 | 0.0 | 0.00 | 0.00 | 0.00 | 58 | 1018.7 |
| 20260507023040 | 9 | 303 | 0.0 | 0.0 | 0.00 | 0.00 | 0.00 | 50 | 1018.4 |
| 20260507021549 | 10 | 303 | 0.0 | 0.0 | 0.00 | 0.00 | 0.00 | 50 | 1018.1 |
| 20260507020052 | 11 | 303 | 0.0 | 0.0 | 0.00 | 0.00 | 0.00 | 48 | 1018.2 |
| 20260507014549 | 11 | 303 | 0.0 | 0.0 | 0.00 | 0.00 | 0.00 | 46 | 1017.9 |
| 20260507013041 | 12 | 303 | 0.0 | 0.0 | 0.00 | 0.00 | 0.00 | 45 | 1017.9 |
| 20260507011545 | 13 | 350 | 0.0 | 0.0 | 0.00 | 0.00 | 0.00 | 43 | 1017.8 |
| 20260507010043 | 13 | 303 | 0.0 | 0.0 | 0.00 | 0.00 | 0.00 | 40 | 1017.8 |
| 20260507004536 | 15 | 291 | 3.2 | 6.4 | 0.00 | 0.00 | 0.00 | 35 | 1017.9 |
| 20260507003036 | 15 | 323 | 4.8 | 12.9 | 0.00 | 0.00 | 0.00 | 35 | 1017.7 |
| 20260507001536 | 15 | 294 | 3.2 | 6.4 | 0.00 | 0.00 | 0.00 | 34 | 1017.9 |
| 20260507000035 | 15 | 304 | 3.2 | 9.7 | 0.00 | 0.00 | 0.00 | 35 | 1018.0 |
| 20260506234545 | 15 | 355 | 9.7 | 19.3 | 0.00 | 0.00 | 0.00 | 34 | 1017.9 |
| 20260506233037 | 15 | 7 | 6.4 | 14.5 | 0.00 | 0.00 | 0.00 | 33 | 1017.9 |
| 20260506231534 | 16 | 276 | 4.8 | 14.5 | 0.00 | 0.00 | 0.00 | 35 | 1017.9 |
| 20260506230030 | 16 | 317 | 4.8 | 14.5 | 0.00 | 0.00 | 0.00 | 34 | 1017.9 |
| 20260506224529 | 16 | 302 | 11.3 | 20.9 | 0.00 | 0.00 | 0.00 | 35 | 1018.0 |
| 20260506223027 | 16 | 333 | 4.8 | 14.5 | 0.00 | 0.00 | 0.00 | 36 | 1018.0 |
| 20260506221524 | 15 | 328 | 4.8 | 12.9 | 0.00 | 0.00 | 0.00 | 36 | 1018.2 |
| 20260506220023 | 15 | 317 | 4.8 | 9.7 | 0.00 | 0.00 | 0.00 | 36 | 1018.2 |
| 20260506214522 | 15 | 226 | 6.4 | 17.7 | 0.00 | 0.00 | 0.00 | 35 | 1018.3 |
| 20260506213020 | 15 | 282 | 3.2 | 14.5 | 0.00 | 0.00 | 0.00 | 40 | 1018.4 |
| 20260506211522 | 14 | 247 | 4.8 | 14.5 | 0.00 | 0.00 | 0.00 | 39 | 1019.0 |
| 20260506210019 | 15 | 263 | 3.2 | 14.5 | 0.00 | 0.00 | 0.00 | 39 | 1019.1 |
| 20260506204517 | 14 | 230 | 0.0 | 12.9 | 0.00 | 0.00 | 0.00 | 37 | 1019.3 |
| 20260506203016 | 14 | 292 | 6.4 | 16.1 | 0.00 | 0.00 | 0.00 | 36 | 1019.5 |
| 20260506201514 | 14 | 88 | 4.8 | 9.7 | 0.00 | 0.00 | 0.00 | 38 | 1019.8 |
| 20260506200013 | 13 | 328 | 11.3 | 19.3 | 0.00 | 0.00 | 0.00 | 37 | 1020.0 |
| 20260506194516 | 13 | 4 | 8.0 | 19.3 | 0.00 | 0.00 | 0.00 | 35 | 1020.0 |
| 20260506193014 | 14 | 345 | 8.0 | 25.7 | 0.00 | 0.00 | 0.00 | 37 | 1019.9 |
| 20260506191511 | 13 | 317 | 6.4 | 14.5 | 0.00 | 0.00 | 0.00 | 36 | 1019.9 |
| 20260506190010 | 13 | 334 | 3.2 | 12.9 | 0.00 | 0.00 | 0.00 | 39 | 1019.9 |
| 20260506184508 | 13 | 350 | 1.6 | 16.1 | 0.00 | 0.00 | 0.00 | 37 | 1019.9 |
| 20260506183011 | 13 | 359 | 8.0 | 19.3 | 0.00 | 0.00 | 0.00 | 37 | 1020.2 |
| 20260506181504 | 13 | 332 | 3.2 | 12.9 | 0.00 | 0.00 | 0.00 | 40 | 1020.1 |
| 20260506180005 | 12 | 306 | 6.4 | 16.1 | 0.00 | 0.00 | 0.00 | 39 | 1020.3 |
| 20260506174501 | 12 | 345 | 6.4 | 16.1 | 0.00 | 0.00 | 0.00 | 40 | 1020.6 |
| 20260506173130 | 12 | 314 | 3.2 | 16.1 | 0.00 | 0.00 | 0.00 | 37 | 1020.7 |
| 20260506171607 | 12 | 291 | 3.2 | 14.5 | 0.00 | 0.00 | 0.00 | 39 | 1020.9 |